Wind_Speed
22 22 25 27 26 26 27 26 28 26 26 24 24 24 22 22 22 22 22 22 23 22 20 16 12 10 5 5 7 5 4 21 18 17 15 8 6 3 6 6 6 6 6 9 8 9 5
27 23 24 25 28 29 30 31 31 28 27 24 22 24 24 22 22 22 23 23 24 22 19 15 15 12 5 6 13 5 8 16 16 19 14 11 5 7 4 6 4 3 2 3 6 7 6
25 24 28 28 30 30 31 31 31 27 24 22 25 24 24 23 22 22 23 22 23 22 21 12 16 13 6 11 5 11 9 11 14 19 7 19 7 4 2 2 3 4 3 7 6 7 6
24 24 26 29 29 30 30 30 30 29 27 26 25 22 23 23 22 21 22 20 21 21 22 19 18 12 5 12 14 8 10 9 7 12 21 10 6 3 1 3 2 4 3 2 8 10 8
25 27 27 27 28 29 30 31 30 28 27 26 24 21 20 21 22 21 19 18 20 20 20 21 15 9 5 8 15 14 11 8 8 4 15 8 4 3 2 5 2 2 3 6 7 7 5
27 27 29 29 30 31 30 30 29 27 26 25 22 20 19 21 21 19 20 20 24 15 17 11 7 3 4 8 11 21 12 11 5 10 7 4 3 3 3 2 5 5 4 4 5 4 5
26 27 29 30 29 29 30 29 27 27 26 23 21 20 21 19 19 18 17 10 3 1 9 5 6 4 5 12 16 17 19 6 5 3 3 4 3 6 9 8 4 4 4 4 4 5 3
25 27 29 29 28 28 28 27 27 26 24 24 23 23 20 13 21 18 16 3 0 6 6 9 7 9 15 15 6 11 14 6 5 5 3 4 2 5 7 7 6 4 5 5 6 6 6
26 27 28 28 27 28 28 27 27 26 25 25 23 20 19 20 19 14 7 10 5 6 6 8 3 11 5 3 5 13 9 5 8 6 6 7 3 11 4 2 0 2 3 3 4 7 5
26 27 28 28 27 28 27 27 27 25 27 24 22 23 23 23 7 5 9 10 12 7 3 10 5 6 5 3 4 9 11 5 4 7 7 1 3 2 5 3 3 1 4 5 4 4 4
27 27 29 28 27 27 27 28 29 28 27 24 25 29 29 25 5 3 5 11 11 7 4 11 8 14 6 1 13 8 3 3 7 7 5 5 3 5 3 2 3 3 5 5 3 3 5
27 26 30 29 28 27 28 28 29 30 25 27 31 33 35 11 4 12 9 16 5 1 3 5 7 10 6 11 3 6 3 2 3 8 5 4 2 3 4 2 4 5 3 3 2 2 2
27 28 30 30 28 28 28 28 29 30 26 30 33 35 22 6 1 5 12 5 4 4 3 6 9 10 13 5 6 10 7 4 4 5 3 4 1 2 4 5 2 4 5 3 2 1 6
26 29 30 30 28 29 30 30 30 30 30 34 37 20 12 6 5 14 10 1 1 3 5 9 11 13 7 9 4 7 7 5 3 3 4 4 2 8 4 5 6 5 5 4 5 3 4
25 28 30 29 29 28 30 30 32 31 34 35 24 12 10 8 13 13 2 2 1 4 5 9 13 8 6 4 6 5 3 4 4 3 5 4 3 4 6 3 6 4 5 2 1 3 3
25 27 29 29 29 28 30 31 32 34 39 25 5 5 9 8 4 1 2 5 5 3 14 9 4 4 6 7 5 6 7 7 4 7 2 2 4 3 4 3 3 4 4 3 2 2 5
25 27 28 28 28 28 30 32 33 36 30 11 7 2 10 9 5 2 2 4 5 12 4 1 4 6 8 6 5 5 11 4 9 9 5 2 1 2 3 5 7 3 4 2 2 4 3
24 26 27 28 28 28 30 32 34 36 29 13 3 3 11 13 2 1 2 1 7 6 6 3 5 7 11 8 7 4 8 3 9 12 6 3 3 3 9 6 8 4 6 5 3 5 4
22 25 26 27 28 30 31 32 34 33 22 5 3 1 5 5 4 2 3 4 4 6 5 2 4 5 13 5 6 2 4 4 10 9 11 5 2 1 3 3 2 5 7 8 7 1 13
21 23 25 25 26 28 31 32 33 34 15 4 1 3 3 2 2 3 5 6 2 7 6 7 11 13 8 3 2 8 3 4 4 3 9 7 4 6 4 3 4 3 5 8 11 5 9
19 21 22 24 25 26 28 32 35 37 11 3 3 1 1 2 1 3 4 3 8 5 6 7 5 8 5 4 9 8 7 3 5 1 4 3 2 1 5 9 6 7 11 11 12 15 11
18 19 20 22 24 24 25 29 34 37 14 8 2 3 5 4 2 1 3 4 6 4 5 5 6 9 11 5 2 7 8 4 4 3 3 2 2 1 6 9 8 7 11 12 15 17 19
17 17 18 20 22 23 24 25 27 29 21 7 6 3 1 5 2 2 3 4 1 2 5 4 4 5 7 4 4 3 4 3 7 8 5 5 3 1 4 5 6 3 6 8 7 7 10
16 16 16 18 20 21 22 23 22 23 23 4 3 3 2 3 1 2 2 3 2 3 4 3 6 4 1 3 2 4 5 4 5 5 6 5 4 1 3 5 1 3 6 7 9 9 9
16 15 16 17 18 18 20 21 22 22 20 15 6 2 2 3 3 3 0 3 4 4 3 3 3 1 2 1 2 3 2 2 5 5 6 4 3 2 2 2 6 4 3 5 5 5 3
16 17 16 16 16 18 18 18 19 21 21 19 4 7 1 1 3 6 4 5 3 2 1 2 1 3 3 1 1 3 3 3 3 3 4 5 4 2 0 2 3 3 2 1 5 3 5
14 16 14 14 15 15 16 16 17 18 18 19 4 13 2 2 3 4 3 3 2 2 2 2 2 2 2 1 1 2 2 1 3 5 4 4 2 5 4 3 6 8 5 4 1 4 3
14 16 14 15 15 15 15 14 14 14 15 16 9 5 6 3 7 3 3 2 4 3 3 3 2 1 1 2 2 1 1 2 1 3 5 6 6 4 4 3 7 5 2 2 5 2 2
14 16 14 14 16 16 16 16 14 12 12 12 5 12 10 3 5 9 19 21 11 3 2 2 1 2 3 3 0 1 1 2 0 3 3 3 5 4 7 6 6 3 5 3 2 2 3
Wind_Direction
337 340 343 340 334 330 323 323 321 322 315 314 316 318 316 320 321 317 315 314 312 311 314 229 227 225 201 207 248 266 179 188 182 179 198 216 222 188 172 193 234 218 248 248 258 290 264
342 344 339 336 334 336 334 329 325 325 323 318 319 315 313 313 311 314 308 305 305 303 287 250 205 206 215 216 232 211 154 178 194 188 208 215 221 216 203 243 202 224 191 284 288 306 310
342 337 340 340 337 337 333 329 329 328 325 317 312 312 310 312 313 312 308 300 300 293 291 299 195 191 228 213 157 166 170 193 192 197 197 220 224 176 217 260 314 116 35 337 301 274 250
337 341 344 339 337 334 335 334 332 330 325 320 319 317 310 312 314 312 307 301 300 287 291 311 186 191 245 231 213 205 191 223 173 194 207 178 119 114 84 289 47 57 45 327 248 234 234
345 342 340 337 334 335 336 335 333 330 328 325 325 322 315 315 314 310 310 300 299 284 280 274 172 182 234 203 188 197 189 201 200 159 197 155 96 156 48 139 102 151 227 219 298 241 185
342 341 339 336 337 336 337 337 335 332 329 328 327 325 322 320 316 309 320 305 295 276 280 230 132 165 235 199 171 183 187 211 158 127 108 126 72 113 152 136 187 199 228 245 239 290 190
344 341 339 341 343 344 342 341 339 335 334 333 332 330 326 325 320 319 322 334 360 210 234 154 163 250 161 166 151 172 188 160 151 123 151 170 118 179 188 196 243 275 283 281 280 285 267
341 342 339 344 343 343 341 340 339 338 337 336 331 327 331 335 323 314 309 257 111 60 296 184 187 229 118 128 122 158 168 138 145 167 149 79 135 239 189 206 244 298 259 285 297 336 358
340 342 342 342 343 340 341 341 339 337 336 333 332 329 327 319 327 316 257 245 183 4 266 173 227 196 155 133 133 174 160 127 150 159 160 137 162 206 249 299 188 327 296 300 283 336 345
345 342 342 342 343 339 342 342 339 338 332 331 330 326 323 323 278 276 294 297 190 106 261 151 217 170 128 175 104 164 170 132 156 154 155 57 129 89 194 222 143 317 23 65 31 38 257
345 341 343 345 343 340 343 343 341 339 335 333 331 326 322 316 237 221 302 155 127 77 154 144 151 140 143 140 127 194 189 33 147 138 111 212 183 158 114 145 163 201 87 76 48 17 360
346 344 344 346 343 343 345 345 341 343 335 332 330 325 323 327 274 233 199 137 123 33 193 147 143 150 121 145 61 132 127 48 110 135 171 66 5 103 152 112 83 119 70 34 33 78 307
348 345 346 349 345 345 345 345 344 342 335 331 332 330 333 302 212 157 163 196 88 231 239 117 134 135 124 113 115 149 146 120 131 118 144 144 320 76 80 97 89 97 74 357 337 259 235
348 346 348 350 347 348 350 347 347 343 335 334 337 342 15 28 158 156 162 66 206 57 46 125 125 130 107 124 98 152 140 150 302 71 106 131 325 165 188 164 175 162 160 167 225 225 276
350 354 347 352 349 353 351 348 349 342 336 333 340 5 22 23 133 150 349 39 325 36 134 123 108 119 129 115 123 130 140 155 208 192 122 120 281 113 152 154 132 193 202 176 338 267 34
353 352 350 354 354 354 351 352 349 345 336 342 51 21 21 64 124 109 336 17 326 233 110 135 75 160 147 154 114 145 160 193 194 189 130 16 117 159 138 149 194 151 168 69 5 254 262
353 354 354 356 355 355 355 353 354 350 358 25 47 53 5 15 333 19 15 342 295 130 122 16 137 130 133 156 132 141 182 197 186 182 165 224 111 40 118 208 187 173 198 183 152 168 217
355 356 357 357 357 358 357 355 357 0 5 24 49 46 327 344 66 16 19 304 285 227 244 149 118 103 151 168 153 148 179 181 187 169 180 185 117 198 216 227 196 189 196 167 149 261 243
359 358 358 357 2 0 357 357 359 5 7 356 54 279 312 350 47 27 251 237 277 11 28 57 120 129 138 122 134 184 88 26 166 160 174 146 181 206 311 25 173 199 210 213 226 215 246
358 0 359 360 3 1 357 358 2 3 13 65 47 35 334 21 55 340 353 358 32 345 23 39 98 109 124 190 140 176 116 48 108 104 148 136 172 176 188 184 118 239 223 206 201 227 262
357 360 359 359 2 4 2 0 3 6 32 60 17 6 55 299 188 199 206 271 32 32 2 21 90 153 171 95 125 134 85 75 51 71 79 110 232 94 267 258 228 224 238 238 238 250 252
356 358 358 359 1 1 3 1 4 6 29 60 55 353 347 295 100 42 40 341 13 5 24 4 80 71 63 73 70 140 133 160 185 179 128 110 266 3 284 256 234 250 254 250 249 256 258
350 352 354 357 359 5 3 5 7 11 20 36 346 327 267 280 284 129 212 200 185 114 18 51 25 90 64 32 48 90 83 73 146 148 161 159 156 226 270 330 318 289 238 221 220 219 248
339 346 350 352 356 1 4 1 6 12 14 8 12 282 303 287 357 268 102 107 98 30 124 18 46 76 219 349 359 49 87 107 123 162 140 152 146 178 284 328 314 221 203 197 212 249 251
333 341 344 347 351 354 360 2 358 0 10 4 12 24 331 294 319 280 170 105 86 65 81 79 44 62 9 31 100 151 170 140 215 186 173 143 131 211 265 250 272 285 233 200 198 273 244
327 336 341 342 344 346 350 355 359 355 357 3 4 11 332 330 233 303 285 154 160 184 352 108 56 11 34 49 114 160 184 191 152 119 205 147 133 179 20 290 276 260 274 226 121 281 224
321 331 339 336 338 338 340 344 349 353 354 353 327 353 272 269 262 355 14 271 162 111 135 120 184 53 45 84 88 183 240 234 174 175 168 164 177 220 225 259 281 252 241 158 313 251 244
314 324 333 332 332 333 333 333 336 342 350 353 315 355 12 301 282 264 292 308 337 98 154 208 79 324 98 138 175 235 128 273 348 164 174 174 168 197 180 208 263 215 104 230 237 271 302
308 322 326 329 327 328 328 327 329 329 335 341 314 322 320 239 272 298 274 269 240 267 153 146 265 136 191 108 79 61 233 6 122 277 279 205 198 188 185 212 234 250 236 320 11 284 306
Height
835 830 826 823 819 814 810 806 801 797 793 790 786 783 780 778 776 773 770 768 764 761 758 756 760 763 766 765 757 751 752 757 761 764 767 770 773 773 778 778 777 778 776 770 770 769 768
832 828 824 819 815 811 806 802 798 793 788 785 782 779 776 773 771 769 767 764 761 758 755 754 757 762 763 760 748 751 752 755 758 762 764 767 768 768 773 775 776 767 771 771 769 769 769
831 827 823 819 814 809 804 798 794 789 785 782 778 775 772 769 766 765 763 760 758 755 753 749 753 758 757 749 747 749 752 754 755 758 762 764 766 768 769 770 766 769 776 775 772 770 771
829 824 820 816 812 807 801 795 790 786 781 777 773 770 767 765 762 760 758 755 752 750 748 745 749 756 751 744 745 748 750 752 754 756 759 763 764 767 769 767 767 774 778 789 771 764 763
828 824 818 814 808 804 798 792 787 782 778 773 770 766 763 761 758 755 753 750 747 745 743 742 746 750 748 740 742 745 748 750 753 754 756 763 764 769 769 776 781 780 793 788 777 755 757
827 823 817 811 805 800 794 789 783 778 774 770 766 763 760 758 755 751 749 746 740 739 737 736 740 749 742 739 739 742 746 750 752 753 762 764 766 773 774 775 790 785 788 779 778 759 756
824 819 814 809 803 797 792 786 781 776 771 767 763 760 757 755 751 749 747 742 739 739 734 728 731 729 724 733 736 740 745 747 750 755 761 762 770 774 776 777 771 772 774 777 769 761 763
822 817 812 807 801 795 789 783 778 774 769 765 760 757 754 751 749 746 745 744 741 743 738 726 729 731 728 730 738 740 744 751 754 762 758 768 773 768 766 770 773 774 777 779 769 760 764
820 815 809 804 799 793 786 780 776 771 766 762 757 754 751 747 745 743 741 742 740 741 736 727 729 731 730 732 737 741 744 748 754 761 762 769 766 763 769 771 774 777 779 779 780 772 768
819 813 807 802 797 791 784 778 773 769 763 758 755 751 747 744 743 740 739 736 738 740 738 726 727 727 730 732 740 740 743 748 754 759 760 764 759 764 770 774 775 784 778 777 779 786 792
817 811 806 800 795 789 783 777 772 767 761 756 752 747 742 740 735 737 739 736 737 742 715 730 725 726 729 735 738 744 744 746 753 756 765 770 765 768 771 772 772 782 779 781 784 790 797
815 809 803 798 793 788 781 775 769 764 759 753 748 742 735 729 729 731 736 735 737 745 717 725 725 727 734 734 738 743 747 747 748 755 763 766 761 764 768 770 776 778 783 784 787 798 824
815 809 802 796 791 786 780 774 768 762 756 750 744 736 729 728 728 729 733 737 745 736 726 723 720 726 731 738 743 745 750 754 760 772 772 767 770 767 767 778 778 781 796 835 804 804 808
814 808 802 796 791 785 779 773 766 760 754 746 739 733 730 729 729 732 734 736 739 713 718 718 719 728 734 738 748 747 753 757 757 758 772 774 794 775 772 777 785 787 791 822 804 808 790
813 808 802 796 790 785 779 772 765 758 750 741 735 734 733 734 733 736 737 739 727 719 721 721 727 735 742 739 749 750 755 756 758 757 770 790 781 767 771 771 777 786 798 787 797 793 830
813 807 801 795 790 784 778 771 764 756 745 736 735 739 738 739 739 740 740 729 734 723 716 719 732 731 743 741 750 751 756 754 755 755 758 760 773 768 769 770 772 777 782 811 823 833 798
813 807 801 795 790 784 778 772 763 754 744 738 739 742 745 743 742 743 740 744 736 717 715 718 724 728 736 745 747 751 754 748 751 755 758 757 763 780 772 776 778 780 780 783 789 805 815
812 807 802 796 790 785 779 772 764 755 747 743 745 749 746 745 746 745 745 750 741 727 716 715 719 727 732 742 747 745 753 745 746 749 761 759 769 780 784 771 770 774 778 782 798 801 797
812 807 802 797 791 786 780 774 765 758 752 749 754 754 747 745 748 749 749 743 730 719 716 714 718 720 730 736 743 740 744 743 744 749 753 760 774 798 780 775 769 772 771 768 769 778 775
811 807 803 798 792 786 781 775 768 760 753 752 754 758 753 751 752 752 745 737 731 720 718 716 722 725 730 735 736 742 747 748 747 750 749 755 767 787 786 774 771 782 768 766 769 777 763
810 807 803 798 794 789 782 777 769 760 755 754 758 760 758 759 747 746 747 736 728 728 724 723 727 729 732 735 734 736 746 752 752 752 754 761 774 780 770 764 765 770 764 762 767 760 763
810 807 803 799 795 791 786 779 772 763 757 757 761 762 758 754 743 743 739 740 736 734 733 731 731 731 732 739 737 739 744 752 755 757 758 763 786 777 773 761 763 764 755 754 753 748 744
809 807 803 800 796 792 788 784 779 773 764 763 765 765 764 752 747 747 743 739 735 734 734 734 734 734 738 741 740 741 741 743 743 756 762 763 779 772 780 757 760 757 743 739 736 733 732
809 806 803 800 797 793 790 785 782 778 774 772 770 769 764 755 748 739 733 733 735 734 736 735 735 736 741 739 739 740 743 745 746 752 754 764 769 769 767 761 760 727 722 724 727 722 720
807 805 802 800 797 794 790 788 783 780 777 774 771 769 766 760 754 736 734 736 738 738 738 739 739 740 739 739 744 745 746 746 747 751 753 754 765 763 757 754 742 722 719 723 726 719 713
805 803 800 799 797 794 791 788 785 782 777 773 772 770 768 764 754 747 740 738 745 745 742 741 740 739 739 743 744 744 743 739 746 750 749 754 758 762 760 755 746 720 714 713 719 723 709
801 800 797 795 793 792 790 787 785 783 780 776 772 771 769 763 749 747 741 740 733 739 746 742 742 742 743 748 748 744 751 736 745 747 750 752 758 755 756 751 741 721 714 715 720 718 707
798 797 795 793 790 789 788 787 784 782 780 778 774 772 772 767 751 745 743 742 739 739 744 744 744 745 747 749 750 750 752 745 742 738 744 745 749 749 750 752 751 711 712 716 708 703 702
796 794 792 790 788 787 785 784 782 780 778 778 776 774 772 771 756 746 741 738 739 737 737 739 739 739 742 745 754 748 744 748 746 747 730 736 730 730 738 733 714 706 707 705 705 706 703